Home > Weather > Port Vila > Past weeks

Flag for Vanuatu Weather for the Past 2 Weeks in Port Vila, Vanuatu

Now
72 °F

Passing clouds.


Feels Like: 69 °F
Forecast: 77 / 83 °F
Wind: 5 mph from East

Location: Bauerfield Efate

Current Time: May 1, 2016 at 8:27:39 AM

Latest Report: May 1, 2016 at 7:00 AM


Visibility: N/A

Pressure: 29.98 "Hg

Humidity: 88%

Dew Point: 68 °F

Location of Port VilaLocation

Historic Weather in Port Vila — Graph

°F

Port Vila Temperature Yesterday

Maximum temperature yesterday: 84 °F (at 11:00 AM)
Minimum temperature yesterday: 72 °F (at 11:00 PM)
Average temperature yesterday: 78 °F

High & Low Weather Summary for the Past Weeks

 TemperatureHumidityPressure
High88 °F (Apr 27, 11:00 AM)100% (Apr 16, 7:57 AM)30.01 "Hg (Apr 16, 7:57 AM)
Low66 °F (Apr 23, 1:00 AM)62% (Apr 20, 1:00 PM)29.56 "Hg (Apr 25, 1:00 PM)
Average78 °F87%29.87 "Hg
* Reported Apr 16 7:57 AM — May 1 7:00 AM, Port Vila, Weather by CustomWeather, © 2016

Note: Actual official high and low records may vary slightly from our data, if they occured in-between our weather recording intervals... More about our weather records

Advertising

Port Vila Weather History for the Previous 24 Hours

Scroll right to see more
 ConditionsComfort  
Time TempWeatherWind HumidityBarometerVisibility
7:00 AM
Sun, May 1
72 °FPassing clouds.5 mph88%29.98 "HgN/A
6:00 AM68 °FPassing clouds.3 mph94%29.95 "HgN/A
5:00 AM68 °FPassing clouds.2 mph100%29.92 "HgN/A
4:00 AM66 °FPassing clouds.2 mph100%29.92 "HgN/A
3:00 AM66 °FPassing clouds.2 mph100%29.92 "HgN/A
2:00 AM68 °FPassing clouds.No wind100%29.95 "HgN/A
1:00 AM68 °FPassing clouds.2 mph100%29.95 "HgN/A
12:00 AM70 °FPassing clouds.2 mph100%29.95 "HgN/A
11:00 PM
Sat, Apr 30
72 °FPassing clouds.1 mph94%29.98 "HgN/A
9:00 PM73 °FPassing clouds.3 mph94%29.98 "HgN/A
8:00 PM75 °FPassing clouds.3 mph89%29.98 "HgN/A
7:00 PM75 °FPassing clouds.3 mph94%29.95 "HgN/A
6:00 PM77 °FPassing clouds.6 mph83%29.95 "HgN/A
5:00 PM81 °FPassing clouds.12 mph74%29.92 "HgN/A
4:00 PM82 °FScattered clouds.14 mph74%29.92 "HgN/A
3:00 PM82 °FScattered clouds.17 mph74%29.92 "HgN/A
2:00 PM84 °FPartly sunny.16 mph74%29.92 "HgN/A
1:00 PM81 °FPartly sunny.16 mph79%29.92 "HgN/A
12:00 PM79 °FRain showers. Partly sunny.15 mph89%29.95 "Hg3 mi
11:00 AM84 °FPartly sunny.14 mph70%29.98 "HgN/A
10:00 AM82 °FScattered clouds.13 mph74%29.98 "HgN/A
9:00 AM81 °FSprinkles. Partly sunny.8 mph84%30.01 "HgN/A
8:00 AM77 °FBroken clouds.8 mph83%29.98 "HgN/A
Weather by CustomWeather, © 2016

See weather overviewHow to use our weather pages